Storm Lake, IA

11:43 PM CDT on August 22, 2017 (GMT -0500)
Storm Lake Municipal

Weather History for KSLB - December, 2011

Change the Weather History Date:

Sunday, December 4, 2011

  Actual Average Record
Temperature  
Mean Temperature 19 °F -  
Max Temperature 23 °F 35 °F 59 °F (2001)
Min Temperature 14 °F 21 °F 3 °F (2005)
Degree Days  
Heating Degree Days 46    
Moisture  
Dew Point 15 °F    
Average Humidity 84    
Maximum Humidity 91    
Minimum Humidity 81    
Precipitation  
Precipitation 0.00 in - - ()
Sea Level Pressure  
Sea Level Pressure 30.14 in    
Wind  
Wind Speed 10 mph (WNW)    
Max Wind Speed 15 mph    
Max Gust Speed -    
Visibility 10 miles    
Events      
Averages and records for this station are not official NWS values.
T = Trace of Precipitation, MM = Missing Value Source: NWS Daily Summary

Daily Weather History Graph

Daily Weather History Graph

Search for Another Location

Airport or City:

Trip Planner

Search our weather history database for the weather conditions in past years. The results will help you decide how hot, cold, wet, or windy it might be!

Date:

Astronomy

Dec. 04, 2011 Rise Set
Actual Time 7:34 AM CST 4:47 PM CST
Civil Twilight 7:02 AM CST 5:19 PM CST
Nautical Twilight 6:27 AM CST 5:54 PM CST
Astronomical Twilight 5:53 AM CST 6:28 PM CST
Moon 1:23 PM CST (12/4) 1:54 AM CST (12/4)
Length of Visible Light 10h 17m
Length of Day
9h 13m
Waxing Gibbous, 72% of the Moon is Illuminated
Dec 4
Waxing Gibbous
Dec 10
Full
Dec 17
Last Quarter
Dec 24
New
Jan 1
First Quarter

Hourly Weather History & Observations

Time (CST) Temp. Windchill Dew Point Humidity Pressure Visibility Wind Dir Wind Speed Gust Speed Precip Events Conditions
12:15 AM 23.5 °F 10.8 °F 21.2 °F 91% 30.00 in 10.0 mi NNW 15.0 mph - N/A   Overcast
12:55 AM 20.8 °F 9.7 °F 18.0 °F 89% 29.99 in 10.0 mi NW 10.4 mph - N/A   Scattered Clouds
1:15 AM 21.2 °F 8.9 °F 19.0 °F 91% 30.00 in 10.0 mi NW 12.7 mph - N/A   Scattered Clouds
1:35 AM 20.5 °F 9.2 °F 17.6 °F 89% 30.01 in 10.0 mi NW 10.4 mph - N/A   Clear
1:55 AM 19.6 °F 6.8 °F 16.9 °F 89% 30.00 in 10.0 mi NW 12.7 mph - N/A   Scattered Clouds
2:35 AM 18.9 °F 9.8 °F 15.4 °F 87% 30.02 in 10.0 mi NW 6.9 mph - N/A   Mostly Cloudy
2:55 AM 19.9 °F 8.6 °F 16.0 °F 85% 30.02 in 10.0 mi NW 10.4 mph - N/A   Overcast
3:15 AM 20.5 °F 10.0 °F 15.8 °F 82% 30.02 in 10.0 mi NW 9.2 mph - N/A   Mostly Cloudy
3:35 AM 19.4 °F 9.5 °F 15.4 °F 85% 30.02 in 10.0 mi NW 8.1 mph - N/A   Mostly Cloudy
3:55 AM 18.0 °F 6.9 °F 14.7 °F 87% 30.04 in 10.0 mi NW 9.2 mph - N/A   Scattered Clouds
4:15 AM 17.2 °F 3.9 °F 14.9 °F 91% 30.04 in 10.0 mi NW 12.7 mph - N/A   Clear
4:35 AM 16.7 °F 3.2 °F 13.6 °F 88% 30.05 in 10.0 mi NW 12.7 mph - N/A   Clear
5:15 AM 15.6 °F 1.8 °F 12.2 °F 86% 30.05 in 10.0 mi NW 12.7 mph - N/A   Mostly Cloudy
5:35 AM 16.7 °F 3.2 °F 13.1 °F 86% 30.06 in 10.0 mi NW 12.7 mph - N/A   Overcast
5:55 AM 17.8 °F 5.2 °F 13.8 °F 84% 30.06 in 10.0 mi NW 11.5 mph - N/A   Overcast
6:15 AM 18.1 °F 5.6 °F 14.0 °F 84% 30.06 in 10.0 mi NW 11.5 mph - N/A   Overcast
6:35 AM 18.3 °F 6.6 °F 14.4 °F 85% 30.07 in 10.0 mi WNW 10.4 mph - N/A   Overcast
6:55 AM 18.5 °F 6.8 °F 14.7 °F 85% 30.08 in 10.0 mi WNW 10.4 mph - N/A   Overcast
7:15 AM 18.5 °F 6.8 °F 14.9 °F 86% 30.09 in 10.0 mi WNW 10.4 mph - N/A   Overcast
7:35 AM 18.5 °F 6.1 °F 14.9 °F 86% 30.10 in 10.0 mi WNW 11.5 mph - N/A   Overcast
7:55 AM 18.5 °F 6.8 °F 14.7 °F 85% 30.11 in 10.0 mi WNW 10.4 mph - N/A   Overcast
8:15 AM 18.5 °F 6.1 °F 14.7 °F 85% 30.11 in 10.0 mi WNW 11.5 mph - N/A   Overcast
8:35 AM 18.5 °F 6.8 °F 14.9 °F 86% 30.12 in 10.0 mi WNW 10.4 mph - N/A   Overcast
8:55 AM 18.9 °F 8.0 °F 14.9 °F 85% 30.13 in 10.0 mi WNW 9.2 mph - N/A   Overcast
9:15 AM 19.0 °F 9.0 °F 15.3 °F 85% 30.14 in 10.0 mi West 8.1 mph - N/A   Overcast
9:35 AM 19.2 °F 9.3 °F 15.4 °F 85% 30.14 in 10.0 mi West 8.1 mph - N/A   Overcast
9:55 AM 19.2 °F 10.2 °F 15.4 °F 85% 30.14 in 10.0 mi WNW 6.9 mph - N/A   Overcast
10:15 AM 19.4 °F 9.5 °F 15.4 °F 85% 30.16 in 10.0 mi West 8.1 mph - N/A   Overcast
10:35 AM 19.8 °F 9.9 °F 15.8 °F 85% 30.16 in 10.0 mi West 8.1 mph - N/A   Overcast
10:55 AM 19.9 °F 12.1 °F 15.6 °F 83% 30.17 in 10.0 mi WNW 5.8 mph - N/A   Overcast
11:15 AM 20.1 °F 11.3 °F 15.6 °F 83% 30.17 in 10.0 mi WNW 6.9 mph - N/A   Overcast
11:35 AM 20.3 °F 11.5 °F 16.2 °F 84% 30.16 in 10.0 mi WNW 6.9 mph - N/A   Overcast
11:55 AM 20.5 °F 12.8 °F 16.0 °F 83% 30.16 in 10.0 mi WNW 5.8 mph - N/A   Overcast
12:15 PM 20.7 °F 11.9 °F 16.0 °F 82% 30.16 in 10.0 mi WNW 6.9 mph - N/A   Overcast
12:35 PM 20.8 °F 13.2 °F 16.3 °F 83% 30.16 in 10.0 mi WNW 5.8 mph - N/A   Overcast
12:55 PM 20.8 °F 12.1 °F 16.5 °F 83% 30.16 in 10.0 mi West 6.9 mph - N/A   Overcast
1:15 PM 21.2 °F 13.6 °F 16.7 °F 83% 30.16 in 10.0 mi West 5.8 mph - N/A   Overcast
1:35 PM 21.2 °F 14.9 °F 16.7 °F 83% 30.16 in 10.0 mi West 4.6 mph - N/A   Overcast
1:55 PM 21.2 °F 11.7 °F 16.7 °F 83% 30.16 in 10.0 mi WNW 8.1 mph - N/A   Overcast
2:15 PM 21.2 °F 11.7 °F 16.5 °F 82% 30.17 in 10.0 mi WNW 8.1 mph - N/A   Overcast
2:35 PM 21.0 °F 12.4 °F 16.0 °F 81% 30.17 in 10.0 mi West 6.9 mph - N/A   Overcast
2:55 PM 21.0 °F 13.4 °F 16.2 °F 81% 30.17 in 10.0 mi WNW 5.8 mph - N/A   Overcast
3:15 PM 20.8 °F 10.4 °F 16.0 °F 81% 30.18 in 10.0 mi WNW 9.2 mph - N/A   Overcast
3:35 PM 20.5 °F 10.8 °F 15.6 °F 81% 30.19 in 10.0 mi WNW 8.1 mph - N/A   Overcast
3:55 PM 20.3 °F 9.8 °F 15.6 °F 82% 30.19 in 10.0 mi WNW 9.2 mph - N/A   Overcast
4:15 PM 20.3 °F 11.5 °F 15.4 °F 81% 30.21 in 10.0 mi WNW 6.9 mph - N/A   Overcast
4:35 PM 19.9 °F 10.1 °F 15.3 °F 82% 30.21 in 10.0 mi WNW 8.1 mph - N/A   Overcast
4:55 PM 19.9 °F 13.4 °F 15.3 °F 82% 30.22 in 10.0 mi WNW 4.6 mph - N/A   Overcast
5:35 PM 19.4 °F 12.8 °F 14.5 °F 81% 30.23 in 10.0 mi NW 4.6 mph - N/A   Overcast
5:55 PM 19.4 °F 11.5 °F 14.7 °F 82% 30.24 in 10.0 mi WNW 5.8 mph - N/A   Overcast
6:15 PM 19.4 °F 8.6 °F 14.4 °F 81% 30.26 in 10.0 mi WNW 9.2 mph - N/A   Overcast
6:35 PM 19.4 °F 11.5 °F 14.4 °F 81% 30.27 in 10.0 mi West 5.8 mph - N/A   Overcast
6:55 PM 19.4 °F 11.5 °F 14.7 °F 82% 30.28 in 10.0 mi WNW 5.8 mph - N/A   Overcast
7:15 PM 19.4 °F 10.4 °F 14.7 °F 82% 30.28 in 10.0 mi WNW 6.9 mph - N/A   Overcast
7:35 PM 19.2 °F 9.3 °F 14.5 °F 82% 30.29 in 10.0 mi NW 8.1 mph - N/A   Overcast
7:55 PM 18.9 °F 9.8 °F 13.8 °F 81% 30.29 in 10.0 mi NW 6.9 mph - N/A   Overcast
8:15 PM 16.7 °F 9.6 °F 12.0 °F 82% 30.29 in 10.0 mi NW 4.6 mph - N/A   Scattered Clouds
8:35 PM 14.5 °F 8.8 °F 11.1 °F 86% 30.30 in 10.0 mi NW 3.5 mph - N/A   Clear
8:55 PM 14.9 °F - 11.8 °F 88% 30.30 in 10.0 mi Calm Calm - N/A   Clear
9:15 PM 15.1 °F - 12.2 °F 88% 30.30 in 10.0 mi Calm Calm - N/A   Clear
9:35 PM 14.7 °F - 12.2 °F 90% 30.30 in 10.0 mi Calm Calm - N/A   Clear
9:55 PM 14.2 °F 8.4 °F 11.8 °F 90% 30.31 in 10.0 mi North 3.5 mph - N/A   Clear
10:15 PM 14.0 °F - 11.8 °F 91% 30.31 in 10.0 mi Calm Calm - N/A   Clear
10:35 PM 13.3 °F 7.3 °F 11.7 °F 93% 30.32 in 10.0 mi NNW 3.5 mph - N/A   Clear
10:55 PM 12.7 °F 6.7 °F 11.5 °F 95% 30.33 in 10.0 mi NNW 3.5 mph - N/A   Clear
11:35 PM 12.4 °F 4.6 °F 11.1 °F 95% 30.34 in 10.0 mi NNW 4.6 mph - N/A   Clear
11:55 PM 12.0 °F 2.7 °F 10.9 °F 95% 30.34 in 10.0 mi NNW 5.8 mph - N/A   Clear